BHS881 KBGR-CYYT

Flight info

Callsign BHS881
Flight time N/A
Altitude 25000
Route YYG DCT UMETI
Aircraft DH8C/M-SDFGR/S

Departure

Time 2026-04-25 03:07
Airport Bangor International Airport (KBGR)

Arrival

Time N/A
Airport St. John's International Airport (CYYT)
Time Latitude Longitude Altitude Speed Heading
2026-04-25 02:51 44.81098 -68.81737 158 ft 0 kts 316°
2026-04-25 03:00 44.81102 -68.81747 158 ft 3 kts 282°
2026-04-25 03:00 44.81081 -68.81799 159 ft 9 kts 227°
2026-04-25 03:00 44.81023 -68.81883 160 ft 14 kts 226°
2026-04-25 03:01 44.80944 -68.81998 161 ft 18 kts 225°
2026-04-25 03:01 44.80861 -68.82123 163 ft 17 kts 226°
2026-04-25 03:01 44.80821 -68.82230 164 ft 11 kts 244°
2026-04-25 03:01 44.80735 -68.82220 162 ft 18 kts 135°
2026-04-25 03:02 44.80633 -68.82074 159 ft 19 kts 134°
2026-04-25 03:02 44.80541 -68.81943 156 ft 13 kts 134°
2026-04-25 03:02 44.80476 -68.81847 155 ft 16 kts 134°
2026-04-25 03:02 44.80384 -68.81715 154 ft 21 kts 134°
2026-04-25 03:03 44.80268 -68.81548 153 ft 25 kts 134°
2026-04-25 03:03 44.80157 -68.81387 154 ft 19 kts 134°
2026-04-25 03:03 44.80071 -68.81263 155 ft 15 kts 134°
2026-04-25 03:03 44.79998 -68.81157 155 ft 16 kts 134°
2026-04-25 03:04 44.79916 -68.81039 156 ft 15 kts 134°
2026-04-25 03:04 44.79837 -68.81007 157 ft 10 kts 204°
2026-04-25 03:04 44.79773 -68.81090 157 ft 14 kts 226°
2026-04-25 03:05 44.79742 -68.81134 158 ft 0 kts 225°
2026-04-25 03:05 44.79733 -68.81148 158 ft 6 kts 225°
2026-04-25 03:06 44.79710 -68.81263 158 ft 15 kts 264°
2026-04-25 03:06 44.79751 -68.81377 158 ft 12 kts 314°
2026-04-25 03:06 44.79944 -68.81655 156 ft 83 kts 314°
2026-04-25 03:06 44.80496 -68.82449 263 ft 134 kts 315°
2026-04-25 03:07 44.81202 -68.83444 743 ft 153 kts 315°
2026-04-25 03:07 44.81980 -68.84551 1230 ft 170 kts 315°
2026-04-25 03:07 44.82856 -68.85819 1702 ft 185 kts 315°
2026-04-25 03:07 44.83740 -68.87122 2172 ft 185 kts 315°
2026-04-25 03:08 44.84609 -68.88432 2633 ft 180 kts 315°
2026-04-25 03:08 44.85436 -68.89723 3088 ft 178 kts 311°
2026-04-25 03:08 44.85781 -68.91370 3512 ft 183 kts 265°
2026-04-25 03:08 44.85247 -68.92960 3982 ft 181 kts 231°
2026-04-25 03:09 44.84409 -68.94229 4503 ft 175 kts 227°
2026-04-25 03:09 44.83516 -68.95356 4970 ft 172 kts 226°
2026-04-25 03:09 44.82619 -68.96459 5443 ft 169 kts 226°
2026-04-25 03:09 44.81735 -68.97540 5924 ft 172 kts 226°
2026-04-25 03:10 44.80666 -68.98405 6399 ft 192 kts 195°
2026-04-25 03:10 44.79322 -68.97943 6882 ft 216 kts 150°
2026-04-25 03:10 44.78463 -68.96124 7361 ft 235 kts 108°
2026-04-25 03:10 44.78368 -68.93794 7869 ft 243 kts 92°
2026-04-25 03:11 44.78415 -68.91466 8479 ft 235 kts 91°
2026-04-25 03:11 44.78493 -68.89188 8942 ft 234 kts 91°
2026-04-25 03:11 44.78601 -68.86884 9419 ft 234 kts 91°
2026-04-25 03:11 44.78731 -68.84637 9883 ft 234 kts 91°
2026-04-25 03:12 44.78888 -68.82348 10356 ft 235 kts 91°
2026-04-25 03:12 44.79162 -68.80033 10811 ft 245 kts 80°
2026-04-25 03:12 44.79709 -68.77755 11296 ft 247 kts 79°
2026-04-25 03:12 44.80329 -68.75507 11762 ft 252 kts 76°
2026-04-25 03:13 44.81008 -68.73218 12238 ft 255 kts 76°
2026-04-25 03:13 44.81698 -68.70898 12722 ft 258 kts 76°
2026-04-25 03:13 44.82393 -68.68556 13205 ft 261 kts 76°
2026-04-25 03:13 44.83096 -68.66187 13689 ft 263 kts 76°
2026-04-25 03:14 44.83792 -68.63834 14166 ft 265 kts 76°
2026-04-25 03:14 44.84505 -68.61426 14649 ft 267 kts 76°
2026-04-25 03:14 44.85219 -68.59010 15131 ft 269 kts 76°
2026-04-25 03:14 44.85939 -68.56569 15614 ft 271 kts 76°
2026-04-25 03:15 44.86660 -68.54128 16094 ft 272 kts 76°
2026-04-25 03:15 44.87398 -68.51623 16583 ft 274 kts 76°
2026-04-25 03:15 44.88124 -68.49157 17061 ft 276 kts 76°
2026-04-25 03:15 44.88858 -68.46662 17542 ft 277 kts 76°
2026-04-25 03:16 44.89598 -68.44141 18026 ft 279 kts 76°
2026-04-25 03:16 44.90335 -68.41631 18505 ft 281 kts 76°
2026-04-25 03:16 44.91089 -68.39059 18992 ft 282 kts 76°
2026-04-25 03:16 44.91840 -68.36495 19476 ft 283 kts 76°
2026-04-25 03:17 44.92582 -68.33958 19953 ft 285 kts 77°
2026-04-25 03:17 44.93343 -68.31358 20438 ft 286 kts 77°
2026-04-25 03:17 44.94095 -68.28782 20917 ft 287 kts 77°
2026-04-25 03:17 44.94864 -68.26146 21405 ft 288 kts 77°
2026-04-25 03:18 44.95620 -68.23549 21884 ft 289 kts 77°
2026-04-25 03:18 44.96391 -68.20904 22370 ft 291 kts 77°
2026-04-25 03:18 44.97155 -68.18276 22849 ft 292 kts 77°
2026-04-25 03:18 44.97930 -68.15600 23335 ft 293 kts 77°
2026-04-25 03:19 44.98700 -68.12942 23814 ft 294 kts 77°
2026-04-25 03:19 44.99471 -68.10282 24293 ft 295 kts 77°
2026-04-25 03:19 45.00250 -68.07595 24775 ft 295 kts 77°
2026-04-25 03:19 45.01026 -68.04904 25083 ft 302 kts 77°
2026-04-25 03:20 45.01832 -68.02080 25092 ft 318 kts 77°
2026-04-25 03:20 45.02690 -67.99090 25096 ft 332 kts 76°
2026-04-25 03:20 45.03582 -67.96001 25094 ft 344 kts 76°
2026-04-25 03:20 45.04494 -67.92853 25091 ft 353 kts 76°
2026-04-25 03:21 45.05435 -67.89590 25088 ft 361 kts 76°
2026-04-25 03:21 45.06393 -67.86261 25087 ft 367 kts 76°
2026-04-25 03:21 45.07352 -67.82921 25086 ft 371 kts 76°
2026-04-25 03:21 45.08326 -67.79522 25085 ft 375 kts 76°
2026-04-25 03:22 45.09315 -67.76066 25085 ft 378 kts 76°
2026-04-25 03:22 45.10303 -67.72605 25078 ft 380 kts 76°
2026-04-25 03:22 45.11287 -67.69154 25068 ft 382 kts 76°
2026-04-25 03:22 45.12284 -67.65652 25067 ft 383 kts 76°
2026-04-25 03:23 45.13289 -67.62118 25061 ft 384 kts 76°
2026-04-25 03:23 45.14287 -67.58603 25055 ft 385 kts 76°
2026-04-25 03:23 45.15287 -67.55074 25049 ft 386 kts 76°
2026-04-25 03:23 45.16285 -67.51550 25044 ft 386 kts 76°
2026-04-25 03:24 45.17284 -67.48016 25039 ft 387 kts 76°
2026-04-25 03:24 45.18282 -67.44479 25035 ft 387 kts 76°
2026-04-25 03:24 45.19276 -67.40955 25033 ft 387 kts 76°
2026-04-25 03:24 45.20278 -67.37392 25032 ft 387 kts 76°
2026-04-25 03:25 45.21273 -67.33852 25030 ft 387 kts 77°
2026-04-25 03:25 45.22271 -67.30299 25026 ft 387 kts 77°
2026-04-25 03:25 45.23261 -67.26765 25025 ft 387 kts 77°
2026-04-25 03:25 45.24261 -67.23191 25024 ft 387 kts 77°
2026-04-25 03:26 45.25240 -67.19686 25023 ft 387 kts 77°
2026-04-25 03:26 45.26233 -67.16122 25024 ft 386 kts 76°
2026-04-25 03:26 45.27221 -67.12569 25024 ft 386 kts 76°
2026-04-25 03:26 45.28194 -67.09070 25024 ft 385 kts 76°
2026-04-25 03:27 45.29178 -67.05526 25024 ft 383 kts 75°
2026-04-25 03:27 45.30155 -67.02005 25025 ft 382 kts 75°
2026-04-25 03:27 45.31124 -66.98503 25025 ft 381 kts 75°
2026-04-25 03:27 45.32090 -66.95013 25025 ft 380 kts 75°
2026-04-25 03:28 45.33042 -66.91570 25024 ft 378 kts 75°
2026-04-25 03:28 45.34008 -66.88076 25024 ft 378 kts 75°
2026-04-25 03:28 45.34971 -66.84582 25024 ft 377 kts 75°
2026-04-25 03:28 45.35928 -66.81100 25025 ft 377 kts 75°
2026-04-25 03:29 45.36871 -66.77666 25025 ft 376 kts 75°
2026-04-25 03:29 45.37816 -66.74217 25026 ft 376 kts 75°
2026-04-25 03:29 45.38770 -66.70721 25045 ft 374 kts 69°
2026-04-25 03:29 45.39637 -66.67412 24994 ft 371 kts 69°
2026-04-25 03:30 45.40583 -66.64035 24997 ft 367 kts 68°
2026-04-25 03:30 45.41519 -66.60643 24997 ft 364 kts 68°
2026-04-25 03:30 45.42424 -66.57336 24997 ft 362 kts 69°
2026-04-25 03:30 45.43335 -66.53989 24998 ft 360 kts 69°
2026-04-25 03:31 45.44237 -66.50665 24998 ft 359 kts 69°
2026-04-25 03:31 45.45130 -66.47373 24999 ft 358 kts 69°
2026-04-25 03:31 45.46033 -66.44040 24999 ft 358 kts 69°
2026-04-25 03:31 45.46918 -66.40766 24999 ft 357 kts 69°
2026-04-25 03:32 45.47813 -66.37453 24999 ft 357 kts 69°
2026-04-25 03:32 45.48699 -66.34166 24999 ft 357 kts 69°
2026-04-25 03:32 45.49594 -66.30843 24999 ft 357 kts 69°
2026-04-25 03:32 45.50491 -66.27506 24999 ft 357 kts 69°
2026-04-25 03:33 45.51374 -66.24217 24999 ft 356 kts 69°
2026-04-25 03:33 45.52251 -66.20946 24999 ft 356 kts 69°
2026-04-25 03:33 45.53140 -66.17630 24999 ft 356 kts 69°
2026-04-25 03:33 45.54021 -66.14335 24999 ft 356 kts 69°
2026-04-25 03:34 45.54901 -66.11039 24999 ft 356 kts 69°
2026-04-25 03:34 45.55790 -66.07706 24999 ft 356 kts 69°
2026-04-25 03:34 45.56668 -66.04404 24999 ft 356 kts 69°
2026-04-25 03:34 45.57547 -66.01102 24999 ft 356 kts 69°
2026-04-25 03:35 45.58417 -65.97826 24999 ft 356 kts 69°
2026-04-25 03:35 45.59306 -65.94473 24999 ft 356 kts 69°
2026-04-25 03:35 45.60180 -65.91171 24999 ft 356 kts 69°
2026-04-25 03:35 45.61050 -65.87880 24999 ft 356 kts 69°
2026-04-25 03:36 45.61921 -65.84585 24999 ft 356 kts 69°
2026-04-25 03:36 45.62790 -65.81287 24999 ft 356 kts 69°
2026-04-25 03:36 45.63670 -65.77945 24999 ft 356 kts 69°
2026-04-25 03:36 45.64540 -65.74635 24999 ft 356 kts 69°
2026-04-25 03:37 45.65416 -65.71300 24999 ft 356 kts 69°
2026-04-25 03:37 45.66275 -65.68023 24999 ft 356 kts 69°
2026-04-25 03:37 45.67154 -65.64667 24999 ft 356 kts 69°
2026-04-25 03:37 45.68010 -65.61396 24999 ft 356 kts 69°
2026-04-25 03:38 45.68887 -65.58038 24999 ft 356 kts 69°
2026-04-25 03:38 45.69744 -65.54748 24999 ft 356 kts 69°
2026-04-25 03:38 45.70607 -65.51434 24999 ft 356 kts 69°
2026-04-25 03:38 45.71476 -65.48093 24999 ft 356 kts 69°
2026-04-25 03:39 45.72332 -65.44796 24999 ft 356 kts 69°
2026-04-25 03:39 45.73200 -65.41446 24999 ft 356 kts 69°
2026-04-25 03:39 45.74055 -65.38143 24999 ft 356 kts 69°
2026-04-25 03:39 45.74882 -65.34943 24999 ft 356 kts 70°
2026-04-25 03:40 45.75779 -65.31471 24999 ft 356 kts 70°
2026-04-25 03:40 45.76638 -65.28137 24999 ft 356 kts 70°
2026-04-25 03:40 45.77490 -65.24828 24999 ft 356 kts 70°
2026-04-25 03:40 45.78350 -65.21484 24999 ft 356 kts 70°
2026-04-25 03:41 45.79203 -65.18156 24999 ft 356 kts 70°
2026-04-25 03:41 45.80059 -65.14818 24999 ft 356 kts 70°
2026-04-25 03:41 45.80921 -65.11451 24999 ft 356 kts 70°
2026-04-25 03:41 45.81765 -65.08146 24999 ft 356 kts 70°
2026-04-25 03:42 45.82610 -65.04834 24999 ft 356 kts 70°
2026-04-25 03:42 45.83471 -65.01457 24999 ft 356 kts 70°
2026-04-25 03:42 45.84309 -64.98165 24999 ft 356 kts 70°
2026-04-25 03:42 45.85164 -64.94799 24999 ft 356 kts 70°
2026-04-25 03:43 45.86005 -64.91486 24999 ft 356 kts 70°
2026-04-25 03:43 45.86855 -64.88128 24999 ft 356 kts 70°
2026-04-25 03:43 45.87706 -64.84766 24999 ft 356 kts 70°
2026-04-25 03:43 45.88550 -64.81422 24999 ft 356 kts 70°
2026-04-25 03:44 45.89394 -64.78077 24999 ft 356 kts 70°
2026-04-25 03:44 45.90237 -64.74730 24999 ft 356 kts 70°
2026-04-25 03:44 45.91085 -64.71361 24999 ft 356 kts 70°
2026-04-25 03:44 45.91924 -64.68018 24999 ft 356 kts 70°
2026-04-25 03:45 45.92771 -64.64638 24999 ft 356 kts 70°
2026-04-25 03:45 45.93607 -64.61301 24999 ft 356 kts 70°
2026-04-25 03:45 45.94443 -64.57956 24999 ft 356 kts 70°
2026-04-25 03:45 45.95281 -64.54600 24999 ft 356 kts 70°
2026-04-25 03:46 45.96111 -64.51269 24999 ft 356 kts 70°
2026-04-25 03:46 45.96948 -64.47910 24999 ft 356 kts 70°
2026-04-25 03:46 45.97781 -64.44556 24999 ft 356 kts 70°
2026-04-25 03:46 45.98617 -64.41187 24999 ft 356 kts 70°
2026-04-25 03:47 45.99453 -64.37814 24999 ft 356 kts 70°
2026-04-25 03:47 46.00254 -64.34575 24999 ft 356 kts 71°
2026-04-25 03:47 46.01056 -64.31331 24999 ft 356 kts 71°
2026-04-25 03:47 46.01897 -64.27925 24999 ft 356 kts 71°
2026-04-25 03:48 46.02725 -64.24566 24999 ft 356 kts 71°
2026-04-25 03:48 46.03551 -64.21205 24999 ft 356 kts 71°
2026-04-25 03:48 46.04372 -64.17861 24999 ft 356 kts 71°
2026-04-25 03:48 46.05188 -64.14537 24999 ft 356 kts 71°
2026-04-25 03:49 46.06015 -64.11157 24999 ft 356 kts 71°
2026-04-25 03:49 46.06837 -64.07799 24999 ft 356 kts 71°
2026-04-25 03:49 46.07658 -64.04436 24999 ft 356 kts 71°
2026-04-25 03:49 46.08479 -64.01069 24999 ft 356 kts 71°
2026-04-25 03:50 46.09296 -63.97712 24999 ft 356 kts 71°
2026-04-25 03:50 46.10107 -63.94374 24999 ft 356 kts 71°
2026-04-25 03:50 46.10932 -63.90975 24999 ft 356 kts 71°
2026-04-25 03:50 46.11749 -63.87608 24999 ft 356 kts 71°
2026-04-25 03:51 46.12574 -63.84198 24999 ft 356 kts 71°
2026-04-25 03:51 46.13390 -63.80820 24999 ft 356 kts 71°
2026-04-25 03:51 46.14202 -63.77451 24999 ft 356 kts 71°
2026-04-25 03:51 46.15015 -63.74077 24999 ft 356 kts 71°
2026-04-25 03:52 46.15820 -63.70732 24999 ft 356 kts 71°
2026-04-25 03:52 46.16642 -63.67310 24999 ft 356 kts 71°
2026-04-25 03:52 46.17449 -63.63943 24999 ft 356 kts 71°
2026-04-25 03:52 46.18263 -63.60541 24999 ft 356 kts 71°
2026-04-25 03:53 46.19066 -63.57181 24999 ft 356 kts 71°
2026-04-25 03:53 46.19872 -63.53807 24999 ft 356 kts 71°
2026-04-25 03:53 46.20687 -63.50387 24999 ft 356 kts 71°
2026-04-25 03:53 46.21488 -63.47021 24999 ft 356 kts 71°
2026-04-25 03:54 46.22291 -63.43642 24999 ft 356 kts 71°
2026-04-25 03:54 46.23091 -63.40270 24999 ft 356 kts 71°
2026-04-25 03:54 46.23902 -63.36845 24999 ft 356 kts 71°
2026-04-25 03:54 46.24690 -63.33514 24999 ft 356 kts 71°
2026-04-25 03:55 46.25502 -63.30074 24999 ft 356 kts 71°
2026-04-25 03:55 46.26301 -63.26683 24999 ft 356 kts 71°
2026-04-25 03:55 46.27102 -63.23282 24999 ft 356 kts 71°
2026-04-25 03:55 46.27897 -63.19899 24999 ft 356 kts 71°
2026-04-25 03:56 46.28696 -63.16494 24999 ft 356 kts 71°
2026-04-25 03:56 46.29556 -63.13119 24985 ft 357 kts 66°
2026-04-25 03:56 46.30593 -63.09842 25002 ft 356 kts 65°
2026-04-25 03:56 46.31674 -63.06638 24999 ft 356 kts 63°
2026-04-25 03:57 46.32806 -63.03417 24999 ft 356 kts 63°
2026-04-25 03:57 46.33937 -63.00243 25009 ft 356 kts 62°
2026-04-25 03:57 46.35073 -62.97048 24996 ft 357 kts 63°
2026-04-25 03:57 46.36213 -62.93832 24998 ft 357 kts 63°
2026-04-25 03:58 46.37352 -62.90617 24999 ft 356 kts 63°
2026-04-25 03:58 46.38469 -62.87464 24999 ft 356 kts 63°
2026-04-25 03:58 46.39614 -62.84228 24999 ft 356 kts 63°
2026-04-25 03:58 46.40743 -62.81030 24999 ft 356 kts 63°
2026-04-25 03:59 46.41873 -62.77830 24999 ft 356 kts 63°
2026-04-25 03:59 46.42986 -62.74672 24999 ft 356 kts 63°
2026-04-25 03:59 46.44120 -62.71451 24999 ft 356 kts 63°
2026-04-25 03:59 46.45246 -62.68248 24999 ft 356 kts 63°
2026-04-25 04:00 46.46369 -62.65049 24999 ft 356 kts 63°
2026-04-25 04:00 46.47479 -62.61883 24999 ft 356 kts 63°
2026-04-25 04:00 46.48602 -62.58678 24999 ft 356 kts 63°
2026-04-25 04:00 46.49733 -62.55446 24999 ft 356 kts 63°
2026-04-25 04:01 46.50864 -62.52210 24999 ft 356 kts 63°
2026-04-25 04:01 46.51971 -62.49039 24999 ft 356 kts 63°
2026-04-25 04:01 46.53104 -62.45789 24999 ft 356 kts 63°
2026-04-25 04:01 46.54209 -62.42616 24999 ft 356 kts 63°
2026-04-25 04:02 46.55332 -62.39387 24999 ft 356 kts 63°
2026-04-25 04:02 46.56451 -62.36166 24999 ft 356 kts 63°
2026-04-25 04:02 46.57506 -62.33124 24999 ft 356 kts 64°
2026-04-25 04:02 46.58619 -62.29912 24999 ft 356 kts 64°
2026-04-25 04:03 46.59748 -62.26651 24999 ft 356 kts 64°
2026-04-25 04:03 46.60850 -62.23462 24999 ft 356 kts 64°
2026-04-25 04:03 46.61963 -62.20240 24999 ft 356 kts 64°
2026-04-25 04:03 46.63082 -62.16995 24999 ft 356 kts 64°
2026-04-25 04:04 46.64186 -62.13789 24999 ft 356 kts 64°
2026-04-25 04:04 46.65295 -62.10565 24999 ft 356 kts 64°
2026-04-25 04:04 46.66410 -62.07320 24999 ft 356 kts 64°
2026-04-25 04:04 46.67519 -62.04087 24999 ft 356 kts 64°
2026-04-25 04:05 46.68589 -62.00965 24999 ft 356 kts 64°
2026-04-25 04:05 46.69698 -61.97728 24999 ft 356 kts 64°
2026-04-25 04:05 46.70791 -61.94529 24999 ft 356 kts 64°
2026-04-25 04:05 46.71902 -61.91277 24999 ft 356 kts 64°
2026-04-25 04:06 46.73000 -61.88058 24999 ft 356 kts 64°
2026-04-25 04:06 46.74099 -61.84830 24999 ft 356 kts 64°
2026-04-25 04:06 46.75198 -61.81600 24999 ft 356 kts 64°
2026-04-25 04:06 46.76299 -61.78361 24999 ft 356 kts 64°
2026-04-25 04:07 46.77392 -61.75140 24999 ft 356 kts 64°
2026-04-25 04:07 46.78483 -61.71921 24999 ft 356 kts 64°
2026-04-25 04:07 46.79579 -61.68682 24999 ft 356 kts 64°
2026-04-25 04:07 46.80680 -61.65429 24999 ft 356 kts 64°
2026-04-25 04:08 46.81764 -61.62219 24999 ft 356 kts 64°
2026-04-25 04:08 46.82863 -61.58962 24999 ft 356 kts 64°
2026-04-25 04:08 46.83946 -61.55744 24999 ft 356 kts 64°
2026-04-25 04:08 46.85042 -61.52487 24999 ft 356 kts 64°
2026-04-25 04:09 46.86138 -61.49227 24999 ft 356 kts 64°
2026-04-25 04:09 46.87215 -61.46015 24999 ft 356 kts 64°
2026-04-25 04:09 46.88306 -61.42763 24999 ft 356 kts 64°
2026-04-25 04:09 46.89399 -61.39498 24999 ft 356 kts 64°
2026-04-25 04:10 46.90483 -61.36253 24999 ft 356 kts 64°
2026-04-25 04:10 46.91569 -61.33002 24999 ft 356 kts 64°
2026-04-25 04:10 46.92649 -61.29765 24999 ft 356 kts 64°
2026-04-25 04:10 46.93734 -61.26509 24999 ft 356 kts 64°
2026-04-25 04:11 46.95910 -61.19962 24999 ft 356 kts 64°
2026-04-25 04:11 46.96993 -61.16701 24999 ft 356 kts 64°
2026-04-25 04:11 46.98066 -61.13462 24999 ft 356 kts 64°
2026-04-25 04:12 46.99145 -61.10203 24999 ft 356 kts 64°
2026-04-25 04:12 47.00228 -61.06927 24999 ft 356 kts 64°
2026-04-25 04:12 47.01308 -61.03655 24999 ft 356 kts 64°
2026-04-25 04:12 47.02381 -61.00400 24999 ft 356 kts 64°
2026-04-25 04:13 47.03388 -60.97343 24999 ft 356 kts 64°
2026-04-25 04:13 47.04462 -60.94078 24999 ft 356 kts 64°
2026-04-25 04:13 47.05541 -60.90796 24999 ft 356 kts 64°
2026-04-25 04:13 47.06611 -60.87535 24999 ft 356 kts 64°
2026-04-25 04:14 47.07694 -60.84228 24999 ft 356 kts 64°
2026-04-25 04:14 47.08767 -60.80951 24999 ft 356 kts 64°
2026-04-25 04:14 47.09831 -60.77696 24999 ft 356 kts 64°
2026-04-25 04:14 47.10858 -60.74547 24999 ft 356 kts 64°
2026-04-25 04:15 47.11928 -60.71269 24999 ft 356 kts 64°
2026-04-25 04:15 47.12993 -60.67999 24999 ft 356 kts 64°
2026-04-25 04:15 47.14064 -60.64703 24999 ft 356 kts 64°
2026-04-25 04:15 47.15128 -60.61430 24999 ft 356 kts 64°
2026-04-25 04:16 47.16195 -60.58139 24999 ft 356 kts 64°
2026-04-25 04:16 47.17253 -60.54875 24999 ft 356 kts 64°
2026-04-25 04:16 47.18306 -60.51618 24999 ft 356 kts 64°
2026-04-25 04:16 47.19376 -60.48310 24999 ft 356 kts 64°
2026-04-25 04:17 47.20438 -60.45018 24999 ft 356 kts 64°
2026-04-25 04:17 47.21487 -60.41762 24999 ft 356 kts 64°
2026-04-25 04:17 47.22559 -60.38434 24999 ft 356 kts 64°
2026-04-25 04:17 47.23613 -60.35152 24999 ft 356 kts 64°
2026-04-25 04:18 47.24669 -60.31863 24999 ft 356 kts 65°
2026-04-25 04:18 47.25726 -60.28569 24999 ft 356 kts 65°
2026-04-25 04:18 47.26797 -60.25223 24999 ft 356 kts 65°
2026-04-25 04:18 47.27851 -60.21928 24999 ft 356 kts 65°
2026-04-25 04:19 47.28893 -60.18665 24999 ft 356 kts 65°
2026-04-25 04:19 47.29964 -60.15307 24999 ft 356 kts 65°
2026-04-25 04:19 47.31007 -60.12034 24999 ft 356 kts 65°
2026-04-25 04:19 47.32072 -60.08686 24999 ft 356 kts 65°
2026-04-25 04:20 47.33115 -60.05403 24999 ft 356 kts 65°
2026-04-25 04:20 47.34169 -60.02082 24999 ft 356 kts 65°
2026-04-25 04:20 47.35180 -59.98894 24999 ft 356 kts 65°
2026-04-25 04:20 47.36233 -59.95565 24999 ft 356 kts 65°
2026-04-25 04:21 47.37269 -59.92288 24999 ft 356 kts 65°
2026-04-25 04:21 47.38318 -59.88967 24999 ft 356 kts 65°
2026-04-25 04:21 47.39359 -59.85666 24999 ft 356 kts 65°
2026-04-25 04:21 47.40408 -59.82334 24999 ft 356 kts 65°
2026-04-25 04:22 47.41443 -59.79042 24999 ft 356 kts 65°
2026-04-25 04:22 47.42489 -59.75710 24999 ft 356 kts 65°
2026-04-25 04:22 47.43533 -59.72381 24999 ft 356 kts 65°
2026-04-25 04:22 47.44566 -59.69083 24999 ft 356 kts 65°
2026-04-25 04:23 47.45599 -59.65780 24999 ft 356 kts 65°
2026-04-25 04:23 47.46640 -59.62448 24999 ft 356 kts 65°
2026-04-25 04:23 47.47676 -59.59127 24999 ft 356 kts 65°
2026-04-25 04:23 47.48720 -59.55776 24999 ft 356 kts 65°
2026-04-25 04:24 47.49741 -59.52496 24999 ft 356 kts 65°
2026-04-25 04:24 47.50777 -59.49162 24999 ft 356 kts 65°
2026-04-25 04:24 47.51814 -59.45822 24999 ft 356 kts 65°
2026-04-25 04:24 47.52850 -59.42476 24999 ft 356 kts 65°
2026-04-25 04:25 47.53882 -59.39144 24999 ft 356 kts 65°
2026-04-25 04:25 47.54910 -59.35818 24999 ft 356 kts 65°
2026-04-25 04:25 47.55951 -59.32444 24999 ft 356 kts 66°
2026-04-25 04:25 47.56926 -59.29086 24979 ft 357 kts 72°
2026-04-25 04:26 47.57510 -59.25520 25009 ft 356 kts 78°
2026-04-25 04:26 47.57824 -59.21841 24997 ft 356 kts 86°
2026-04-25 04:26 47.57892 -59.18187 25001 ft 356 kts 90°
2026-04-25 04:26 47.57878 -59.14543 25000 ft 356 kts 91°
2026-04-25 04:27 47.57841 -59.10872 25000 ft 356 kts 91°
2026-04-25 04:27 47.57800 -59.07182 24999 ft 356 kts 91°
2026-04-25 04:27 47.57757 -59.03501 24999 ft 356 kts 91°
2026-04-25 04:27 47.57713 -58.99802 24999 ft 356 kts 91°
2026-04-25 04:28 47.57669 -58.96137 24999 ft 356 kts 91°
2026-04-25 04:28 47.57624 -58.92471 24999 ft 356 kts 91°
2026-04-25 04:28 47.57578 -58.88827 24999 ft 356 kts 91°
2026-04-25 04:28 47.57530 -58.85140 24999 ft 356 kts 91°
2026-04-25 04:29 47.57481 -58.81438 24999 ft 356 kts 91°
2026-04-25 04:29 47.57433 -58.77887 24999 ft 356 kts 91°
2026-04-25 04:29 47.57381 -58.74240 24999 ft 356 kts 91°
2026-04-25 04:29 47.57329 -58.70569 24999 ft 356 kts 91°
2026-04-25 04:30 47.57275 -58.66864 24999 ft 356 kts 91°
2026-04-25 04:30 47.57221 -58.63217 24999 ft 356 kts 91°
2026-04-25 04:30 47.57165 -58.59568 24999 ft 356 kts 91°
2026-04-25 04:30 47.57108 -58.55905 24999 ft 356 kts 91°
2026-04-25 04:31 47.57050 -58.52233 24999 ft 356 kts 91°
2026-04-25 04:31 47.56990 -58.48534 24999 ft 356 kts 91°
2026-04-25 04:31 47.56930 -58.44855 24999 ft 356 kts 91°
2026-04-25 04:31 47.56869 -58.41217 24999 ft 356 kts 91°
2026-04-25 04:32 47.56805 -58.37519 24999 ft 356 kts 91°
2026-04-25 04:32 47.56741 -58.33851 24999 ft 356 kts 92°
2026-04-25 04:32 47.56676 -58.30157 24999 ft 356 kts 92°
2026-04-25 04:32 47.56610 -58.26515 24999 ft 356 kts 92°
2026-04-25 04:33 47.56542 -58.22827 24999 ft 356 kts 92°
2026-04-25 04:33 47.56473 -58.19172 24999 ft 356 kts 92°
2026-04-25 04:33 47.56403 -58.15461 24999 ft 356 kts 92°
2026-04-25 04:33 47.56332 -58.11792 24999 ft 356 kts 92°
2026-04-25 04:34 47.56260 -58.08173 24999 ft 356 kts 92°
2026-04-25 04:34 47.56186 -58.04460 24999 ft 356 kts 92°
2026-04-25 04:34 47.56112 -58.00792 24999 ft 356 kts 92°
2026-04-25 04:34 47.56036 -57.97149 24999 ft 356 kts 92°
2026-04-25 04:35 47.55959 -57.93457 24999 ft 356 kts 92°
2026-04-25 04:35 47.55882 -57.89829 24999 ft 356 kts 92°
2026-04-25 04:35 47.55802 -57.86139 24999 ft 356 kts 92°
2026-04-25 04:35 47.55722 -57.82491 24999 ft 356 kts 92°
2026-04-25 04:36 47.55640 -57.78795 24999 ft 356 kts 92°
2026-04-25 04:36 47.55558 -57.75172 24999 ft 356 kts 92°
2026-04-25 04:36 47.55473 -57.71471 24999 ft 356 kts 92°
2026-04-25 04:36 47.55389 -57.67846 24999 ft 356 kts 92°
2026-04-25 04:37 47.55302 -57.64127 24999 ft 356 kts 92°
2026-04-25 04:37 47.55215 -57.60479 24999 ft 356 kts 92°
2026-04-25 04:37 47.55125 -57.56775 24999 ft 356 kts 92°
2026-04-25 04:37 47.55036 -57.53131 24999 ft 356 kts 92°
2026-04-25 04:38 47.54945 -57.49434 24999 ft 356 kts 92°
2026-04-25 04:38 47.54855 -57.45885 24999 ft 356 kts 92°
2026-04-25 04:38 47.54762 -57.42214 24999 ft 356 kts 92°
2026-04-25 04:38 47.54666 -57.38510 24999 ft 356 kts 92°
2026-04-25 04:39 47.54575 -57.35008 24999 ft 356 kts 92°
2026-04-25 04:39 47.54482 -57.31484 24999 ft 356 kts 92°
2026-04-25 04:39 47.54385 -57.27824 24999 ft 356 kts 92°
2026-04-25 04:39 47.54293 -57.24437 24999 ft 356 kts 92°
2026-04-25 04:40 47.54193 -57.20755 24999 ft 356 kts 92°
2026-04-25 04:40 47.54092 -57.17103 24999 ft 356 kts 92°
2026-04-25 04:40 47.53989 -57.13416 24999 ft 356 kts 92°
2026-04-25 04:40 47.53886 -57.09755 24999 ft 356 kts 92°
2026-04-25 04:41 47.53780 -57.06079 24999 ft 356 kts 92°
2026-04-25 04:41 47.53675 -57.02416 24999 ft 356 kts 92°
2026-04-25 04:41 47.53567 -56.98747 24999 ft 356 kts 92°
2026-04-25 04:41 47.53459 -56.95082 24999 ft 356 kts 92°
2026-04-25 04:42 47.53350 -56.91422 24999 ft 356 kts 92°
2026-04-25 04:42 47.53239 -56.87772 24999 ft 356 kts 92°
2026-04-25 04:42 47.53128 -56.84118 24999 ft 356 kts 92°
2026-04-25 04:42 47.53015 -56.80434 24999 ft 356 kts 92°
2026-04-25 04:43 47.52901 -56.76780 24999 ft 356 kts 92°
2026-04-25 04:43 47.52786 -56.73117 24999 ft 356 kts 92°
2026-04-25 04:43 47.52670 -56.69478 24999 ft 356 kts 92°
2026-04-25 04:43 47.52552 -56.65812 24999 ft 356 kts 92°
2026-04-25 04:44 47.52433 -56.62113 24999 ft 356 kts 92°
2026-04-25 04:44 47.52313 -56.58467 24999 ft 356 kts 92°
2026-04-25 04:44 47.52193 -56.54819 24999 ft 356 kts 92°
2026-04-25 04:44 47.52069 -56.51115 24999 ft 356 kts 92°
2026-04-25 04:45 47.51946 -56.47462 24999 ft 356 kts 92°
2026-04-25 04:45 47.51821 -56.43787 24999 ft 356 kts 92°
2026-04-25 04:45 47.51695 -56.40127 24999 ft 356 kts 92°
2026-04-25 04:45 47.51568 -56.36451 24999 ft 356 kts 92°
2026-04-25 04:46 47.51448 -56.33040 24999 ft 356 kts 93°
2026-04-25 04:46 47.51317 -56.29320 24999 ft 356 kts 93°
2026-04-25 04:46 47.51188 -56.25692 24999 ft 356 kts 93°
2026-04-25 04:46 47.51066 -56.22291 24999 ft 356 kts 93°
2026-04-25 04:47 47.50932 -56.18594 24999 ft 356 kts 93°
2026-04-25 04:47 47.50807 -56.15188 24999 ft 356 kts 93°
2026-04-25 04:47 47.50672 -56.11503 24999 ft 356 kts 93°
2026-04-25 04:47 47.50540 -56.07960 24999 ft 356 kts 93°
2026-04-25 04:48 47.50403 -56.04306 24999 ft 356 kts 93°
2026-04-25 04:48 47.50265 -56.00652 24999 ft 356 kts 93°
2026-04-25 04:48 47.50126 -55.96992 24999 ft 356 kts 93°
2026-04-25 04:48 47.49985 -55.93332 24999 ft 356 kts 93°
2026-04-25 04:49 47.49841 -55.89616 24999 ft 356 kts 93°
2026-04-25 04:49 47.49699 -55.85986 24999 ft 356 kts 93°
2026-04-25 04:49 47.49554 -55.82308 24999 ft 356 kts 93°
2026-04-25 04:49 47.49408 -55.78627 24999 ft 356 kts 93°
2026-04-25 04:50 47.49269 -55.75166 24999 ft 356 kts 93°
2026-04-25 04:50 47.49123 -55.71539 24999 ft 356 kts 93°
2026-04-25 04:50 47.48975 -55.67891 24999 ft 356 kts 93°
2026-04-25 04:50 47.48824 -55.64216 24999 ft 356 kts 93°
2026-04-25 04:51 47.48673 -55.60562 24999 ft 356 kts 93°
2026-04-25 04:51 47.48520 -55.56887 24999 ft 356 kts 93°
2026-04-25 04:51 47.48368 -55.53260 24999 ft 356 kts 93°
2026-04-25 04:51 47.48212 -55.49571 24999 ft 356 kts 93°
2026-04-25 04:52 47.48058 -55.45952 24999 ft 356 kts 93°
2026-04-25 04:52 47.47901 -55.42284 24999 ft 356 kts 93°
2026-04-25 04:52 47.47741 -55.38598 24999 ft 356 kts 93°
2026-04-25 04:52 47.47583 -55.34963 24999 ft 356 kts 94°
2026-04-25 04:53 47.47436 -55.31606 24999 ft 356 kts 94°
2026-04-25 04:53 47.47272 -55.27906 24999 ft 356 kts 94°
2026-04-25 04:53 47.47123 -55.24542 24999 ft 356 kts 94°
2026-04-25 04:53 47.46964 -55.20990 24999 ft 356 kts 94°
2026-04-25 04:54 47.46798 -55.17313 24999 ft 356 kts 94°
2026-04-25 04:54 47.46632 -55.13668 24999 ft 356 kts 94°
2026-04-25 04:54 47.46466 -55.10027 24999 ft 356 kts 94°
2026-04-25 04:54 47.46295 -55.06318 24999 ft 356 kts 94°
2026-04-25 04:55 47.46127 -55.02678 24999 ft 356 kts 94°
2026-04-25 04:55 47.45955 -54.99007 24999 ft 356 kts 94°
2026-04-25 04:55 47.45783 -54.95354 24999 ft 356 kts 94°
2026-04-25 04:55 47.45610 -54.91703 24999 ft 356 kts 94°
2026-04-25 04:56 47.45434 -54.88005 24999 ft 356 kts 94°
2026-04-25 04:56 47.45265 -54.84483 24999 ft 356 kts 94°
2026-04-25 04:56 47.45086 -54.80781 24999 ft 356 kts 94°
2026-04-25 04:56 47.44915 -54.77253 24999 ft 356 kts 94°
2026-04-25 04:57 47.44735 -54.73572 24999 ft 356 kts 94°
2026-04-25 04:57 47.44556 -54.69954 24999 ft 356 kts 94°
2026-04-25 04:57 47.44375 -54.66298 24999 ft 356 kts 94°
2026-04-25 04:57 47.44193 -54.62642 24999 ft 356 kts 94°
2026-04-25 04:58 47.44009 -54.58987 24999 ft 356 kts 94°
2026-04-25 04:58 47.43824 -54.55316 24999 ft 356 kts 94°
2026-04-25 04:58 47.43638 -54.51658 24999 ft 356 kts 94°
2026-04-25 04:58 47.43451 -54.47997 24999 ft 356 kts 94°
2026-04-25 04:59 47.43261 -54.44322 24999 ft 356 kts 94°
2026-04-25 04:59 47.43073 -54.40677 24999 ft 356 kts 94°
2026-04-25 04:59 47.42882 -54.37022 24999 ft 356 kts 94°
2026-04-25 04:59 47.42708 -54.33711 24999 ft 356 kts 95°
2026-04-25 05:00 47.42534 -54.30416 24999 ft 356 kts 95°
2026-04-25 05:00 47.42341 -54.26762 24999 ft 356 kts 95°
2026-04-25 05:00 47.42144 -54.23087 24999 ft 356 kts 95°
2026-04-25 05:00 47.41949 -54.19447 24999 ft 356 kts 95°
2026-04-25 05:01 47.41751 -54.15787 24999 ft 356 kts 95°
2026-04-25 05:01 47.41756 -54.12210 24982 ft 357 kts 86°
2026-04-25 05:01 47.41930 -54.08548 24999 ft 356 kts 85°
2026-04-25 05:01 47.42231 -54.04927 24999 ft 356 kts 82°
2026-04-25 05:02 47.42596 -54.01288 24999 ft 356 kts 81°
2026-04-25 05:02 47.42972 -53.97722 24999 ft 356 kts 81°
2026-04-25 05:02 47.43362 -53.94053 24999 ft 356 kts 81°
2026-04-25 05:02 47.43741 -53.90468 24999 ft 356 kts 81°
2026-04-25 05:03 47.44126 -53.86818 24999 ft 356 kts 81°
2026-04-25 05:03 47.44503 -53.83226 24999 ft 356 kts 81°
2026-04-25 05:03 47.44879 -53.79639 24999 ft 356 kts 81°
2026-04-25 05:03 47.45266 -53.75936 24999 ft 356 kts 81°
2026-04-25 05:04 47.45644 -53.72300 24999 ft 356 kts 81°
2026-04-25 05:04 47.46019 -53.68691 24999 ft 356 kts 81°
2026-04-25 05:04 47.46394 -53.65062 24999 ft 356 kts 81°
2026-04-25 05:04 47.46770 -53.61416 24999 ft 356 kts 81°
2026-04-25 05:05 47.47148 -53.57733 24999 ft 356 kts 81°
2026-04-25 05:05 47.47518 -53.54121 24999 ft 356 kts 81°
2026-04-25 05:05 47.47892 -53.50461 24999 ft 356 kts 81°
2026-04-25 05:05 47.48261 -53.46834 24999 ft 356 kts 81°
2026-04-25 05:06 47.48630 -53.43208 24999 ft 356 kts 81°
2026-04-25 05:06 47.49004 -53.39529 24999 ft 356 kts 81°
2026-04-25 05:06 47.49368 -53.35919 24999 ft 356 kts 81°
2026-04-25 05:06 47.49688 -53.32734 24999 ft 356 kts 82°
2026-04-25 05:07 47.50055 -53.29068 24999 ft 356 kts 82°
2026-04-25 05:07 47.50420 -53.25418 24999 ft 356 kts 82°
2026-04-25 05:07 47.50783 -53.21764 24999 ft 356 kts 82°
2026-04-25 05:07 47.51141 -53.18154 24999 ft 356 kts 82°
2026-04-25 05:08 47.51500 -53.14527 24999 ft 356 kts 82°
2026-04-25 05:08 47.51857 -53.10900 24999 ft 356 kts 82°
2026-04-25 05:08 47.52219 -53.07216 24999 ft 356 kts 82°
2026-04-25 05:08 47.52571 -53.03594 24999 ft 356 kts 82°
2026-04-25 05:09 47.52842 -52.99958 24999 ft 356 kts 83°
2026-04-25 05:09 47.53076 -52.96276 25000 ft 356 kts 86°
2026-04-25 05:09 47.53256 -52.92579 24999 ft 356 kts 86°
2026-04-25 05:09 47.53435 -52.88928 24999 ft 356 kts 86°
2026-04-25 05:10 47.53614 -52.85264 24999 ft 356 kts 86°
2026-04-25 05:10 47.53794 -52.81585 24999 ft 356 kts 86°
2026-04-25 05:10 47.53972 -52.77921 24999 ft 356 kts 86°
2026-04-25 05:10 47.54145 -52.74301 24999 ft 356 kts 86°
2026-04-25 05:11 47.54322 -52.70609 24999 ft 356 kts 86°
2026-04-25 05:11 47.54495 -52.66965 24999 ft 356 kts 86°
2026-04-25 05:11 47.54667 -52.63317 24999 ft 356 kts 86°
2026-04-25 05:12 47.55009 -52.55983 24999 ft 356 kts 86°
2026-04-25 05:12 47.55176 -52.52362 24999 ft 356 kts 86°
2026-04-25 05:12 47.55140 -52.48669 24976 ft 357 kts 97°
2026-04-25 05:12 47.55312 -52.45035 24936 ft 358 kts 73°
2026-04-25 05:13 47.56541 -52.41902 24954 ft 357 kts 48°
2026-04-25 05:13 47.58564 -52.39850 24952 ft 357 kts 22°
2026-04-25 05:13 47.61000 -52.39293 24953 ft 357 kts 357°
2026-04-25 05:13 47.63359 -52.40360 24953 ft 356 kts 331°
2026-04-25 05:14 47.65175 -52.42854 24953 ft 356 kts 305°
2026-04-25 05:14 47.66072 -52.46239 24953 ft 356 kts 279°
2026-04-25 05:14 47.65886 -52.49905 24953 ft 356 kts 254°
2026-04-25 05:15 47.63554 -52.56318 24956 ft 357 kts 249°
2026-04-25 05:15 47.63195 -52.59924 25015 ft 355 kts 266°
2026-04-25 05:15 47.63087 -52.63585 24999 ft 356 kts 268°
2026-04-25 05:15 47.62891 -52.67226 25000 ft 356 kts 265°
2026-04-25 05:16 47.62685 -52.70901 24999 ft 356 kts 265°
2026-04-25 05:16 47.62434 -52.74566 25000 ft 356 kts 265°
2026-04-25 05:16 47.62265 -52.78234 25000 ft 356 kts 266°
2026-04-25 05:16 47.62100 -52.81932 24999 ft 356 kts 266°
2026-04-25 05:17 47.61936 -52.85545 24999 ft 356 kts 266°
2026-04-25 05:17 47.61767 -52.89220 24999 ft 356 kts 266°
2026-04-25 05:17 47.61596 -52.92895 24999 ft 356 kts 266°
2026-04-25 05:17 47.61424 -52.96560 24999 ft 356 kts 266°
2026-04-25 05:18 47.61119 -53.00163 24950 ft 358 kts 255°
2026-04-25 05:18 47.59898 -53.03327 24951 ft 357 kts 229°
2026-04-25 05:18 47.57837 -53.05410 24952 ft 357 kts 203°
2026-04-25 05:18 47.55433 -53.05950 24952 ft 357 kts 178°
2026-04-25 05:19 47.53077 -53.04889 24952 ft 357 kts 152°
2026-04-25 05:19 47.51228 -53.02446 24984 ft 355 kts 130°
2026-04-25 05:19 47.49823 -52.99483 24957 ft 357 kts 117°
2026-04-25 05:19 47.49258 -52.95878 24979 ft 356 kts 94°
2026-04-25 05:20 47.49078 -52.92263 25004 ft 355 kts 96°
2026-04-25 05:20 47.48803 -52.88618 25000 ft 356 kts 96°
2026-04-25 05:20 47.48219 -52.85293 24947 ft 357 kts 115°
2026-04-25 05:20 47.46624 -52.82502 24969 ft 356 kts 142°
2026-04-25 05:21 47.44466 -52.81092 24967 ft 356 kts 167°
2026-04-25 05:21 47.42153 -52.81171 24967 ft 356 kts 192°
2026-04-25 05:21 47.39934 -52.82854 24967 ft 356 kts 219°
2026-04-25 05:21 47.38625 -52.85329 24967 ft 356 kts 242°
2026-04-25 05:22 47.38057 -52.88878 24967 ft 356 kts 268°
2026-04-25 05:22 47.38608 -52.92388 24969 ft 356 kts 295°
2026-04-25 05:22 47.39814 -52.95589 25013 ft 355 kts 300°
2026-04-25 05:22 47.41064 -52.98772 25000 ft 356 kts 300°
2026-04-25 05:23 47.42318 -53.01934 25000 ft 356 kts 301°
2026-04-25 05:23 47.43557 -53.05054 24999 ft 356 kts 301°
2026-04-25 05:23 47.45203 -53.07765 24948 ft 357 kts 324°
2026-04-25 05:23 47.47514 -53.09089 24969 ft 357 kts 351°
2026-04-25 05:24 47.49947 -53.08760 24967 ft 356 kts 17°
2026-04-25 05:24 47.52033 -53.06864 24967 ft 356 kts 43°
2026-04-25 05:24 47.53337 -53.03782 24967 ft 356 kts 70°
2026-04-25 05:24 47.53576 -53.00148 24967 ft 356 kts 96°
2026-04-25 05:25 47.52737 -52.96745 24997 ft 355 kts 118°
2026-04-25 05:25 47.51571 -52.93521 25004 ft 356 kts 118°
2026-04-25 05:25 47.50380 -52.90266 25000 ft 356 kts 118°
2026-04-25 05:25 47.49211 -52.87087 24999 ft 356 kts 118°
2026-04-25 05:26 47.48002 -52.83888 24984 ft 356 kts 123°
2026-04-25 05:26 47.46160 -52.81444 24959 ft 357 kts 150°
2026-04-25 05:26 47.43813 -52.80506 24967 ft 357 kts 176°
2026-04-25 05:26 47.41404 -52.81205 24967 ft 356 kts 203°
2026-04-25 05:27 47.39462 -52.83405 24967 ft 356 kts 229°
2026-04-25 05:27 47.38376 -52.86673 24967 ft 356 kts 256°
2026-04-25 05:27 47.38387 -52.90279 24967 ft 356 kts 282°
2026-04-25 05:27 47.39396 -52.93594 25013 ft 355 kts 300°
2026-04-25 05:28 47.40625 -52.96755 25001 ft 356 kts 300°
2026-04-25 05:28 47.41869 -52.99899 25000 ft 356 kts 300°
2026-04-25 05:28 47.43118 -53.03047 25000 ft 356 kts 301°
2026-04-25 05:28 47.44477 -53.06138 24964 ft 357 kts 310°
2026-04-25 05:29 47.46503 -53.08192 24965 ft 357 kts 338°
2026-04-25 05:29 47.48933 -53.08690 24967 ft 357 kts
2026-04-25 05:29 47.51244 -53.07553 24967 ft 356 kts 30°
2026-04-25 05:29 47.52992 -53.04990 24967 ft 356 kts 57°
2026-04-25 05:30 47.53781 -53.01582 24967 ft 356 kts 83°
2026-04-25 05:30 47.53454 -52.97931 24967 ft 356 kts 109°
2026-04-25 05:30 47.52298 -52.94685 25018 ft 355 kts 120°
2026-04-25 05:30 47.51065 -52.91550 24999 ft 356 kts 121°
2026-04-25 05:31 47.49805 -52.88406 25000 ft 356 kts 121°
2026-04-25 05:31 47.48540 -52.85244 24999 ft 356 kts 120°
2026-04-25 05:31 47.46974 -52.82417 24946 ft 357 kts 141°
2026-04-25 05:31 47.44729 -52.80928 24968 ft 357 kts 167°
2026-04-25 05:32 47.42291 -52.81063 24967 ft 356 kts 194°
2026-04-25 05:32 47.40131 -52.82794 24967 ft 356 kts 220°
2026-04-25 05:32 47.38715 -52.85774 24967 ft 356 kts 246°
2026-04-25 05:32 47.38345 -52.89332 24967 ft 356 kts 273°
2026-04-25 05:33 47.39080 -52.92804 24982 ft 356 kts 297°
2026-04-25 05:33 47.40300 -52.95982 25008 ft 355 kts 300°
2026-04-25 05:33 47.41543 -52.99135 25000 ft 356 kts 300°
2026-04-25 05:33 47.42780 -53.02253 25000 ft 356 kts 301°
2026-04-25 05:34 47.44045 -53.05406 24996 ft 356 kts 302°
2026-04-25 05:34 47.45819 -53.07932 24953 ft 357 kts 328°
2026-04-25 05:34 47.48163 -53.08994 24968 ft 357 kts 355°
2026-04-25 05:34 47.50584 -53.08408 24967 ft 356 kts 21°
2026-04-25 05:35 47.52590 -53.06266 24967 ft 356 kts 48°
2026-04-25 05:35 47.53730 -53.03046 24967 ft 356 kts 74°
2026-04-25 05:35 47.53788 -52.99448 24967 ft 356 kts 100°
2026-04-25 05:35 47.52814 -52.96078 25009 ft 355 kts 119°
2026-04-25 05:36 47.51594 -52.92926 25002 ft 356 kts 120°
2026-04-25 05:36 47.50344 -52.89780 25000 ft 356 kts 121°
2026-04-25 05:36 47.49080 -52.86608 24999 ft 356 kts 120°
2026-04-25 05:36 47.47780 -52.83555 24971 ft 357 kts 128°
2026-04-25 05:37 47.46519 -52.81936 24951 ft 357 kts 147°
2026-04-25 05:37 47.43374 -52.80771 24967 ft 357 kts 182°
2026-04-25 05:37 47.42548 -52.80941 24966 ft 357 kts 191°